www.pogodaiklimat.ru

Погода и климат >> Архив погоды >> Малайзия >> Malacca


ПОГОДА в Malacca

  • Прогноз погоды в Malacca
  • Монитор погоды в Malacca
  • Климат города

АРХИВ ПОГОДЫ в Malacca

Время (UTC), дата Ветер
(напр.,м/с)
 
Видим.   Явления Облачность Т
(С)
Тd
(С)
f
(%)
Тe
(С)
Тes
(С)
Комфортность P
(гПа)
Po
(гПа)
Тmin
(С)
Tmax
(С)
R
(мм)
R24
(мм)
S
(см)
00 7.12 С 1 16 км дымка 9/3 300 м
[Cb cap Ac lent Ci sp]
+24.4 +23.7 96 +33 +33 очень
душно
1009.4 1008.4 +23.5 33
03 7.12 СВ 2 18 км мгла 9/4 500 м
[Cb cap Ac trans Ci fib]
+30.1 +25.1 75 +44 +48 опасность
перегрева
1010.9 1009.9
06 7.12 З 2 18 км мгла 9/5 500 м
[Cb cap Ac lent Cs]
+30.1 +25.0 74 +43 +49 опасность
перегрева
1009.0 1008.0
09 7.12 С 1 9000 м слабый ливневой дождь 9/5 500 м
[Cb cap Ac As Ci sp]
+27.9 +24.8 83 +40 +42 очень
душно
1006.9 1005.9
12 7.12 СВ 2 12 км мгла {ливн. осадки, дождь} 9/3 800 м
[Sc Ac As Ci sp]
+25.9 +25.0 95 +37 +37 очень
душно
1009.3 1008.3 +31.0 1
15 7.12 СВ 1 12 км мгла 9/1 840 м
[Sc Ac trans Ci sp]
+24.7 +23.9 95 +34 +34 очень
душно
1011.1 1010.1
18 7.12 СВ 2 12 км мгла 9/3 840 м
[Sc Ac trans Ci sp]
+24.2 +23.4 95 +32 +32 очень
душно
1010.4 1009.4
21 7.12 СВ 1 12 км мгла 9/1 840 м
[Sc Ac lent Ci sp]
+23.9 +23.2 96 +32 +32 очень
душно
1009.0 1008.0
00 8.12 СВ 2 13 км мгла 9/3 500 м
[Cb cap Ac trans Ci sp]
+23.8 +23.1 96 +32 +32 очень
душно
1010.5 1009.5 +23.4 1
03 8.12 СВ 2 16 км мгла 9/4 500 м
[Cb cap Ac As Ci sp]
+28.6 +24.6 79 +41 +45 опасность
перегрева
1011.3 1010.3
06 8.12 СВ 3 16 км мгла 9/4 600 м
[Cu med, cong Ac trans Ci sp]
+30.0 +25.1 75 +43 +49 опасность
перегрева
1009.7 1008.7
09 8.12 СВ 1 18 км мгла 9/1 500 м
[Cb cap Ac As Ci sp]
+29.9 +25.3 76 +43 +46 опасность
перегрева
1007.3 1006.3
12 8.12 СВ 1 14 км мгла 9/1 800 м
[Sc Ac As Ci sp]
+28.0 +26.1 89 +42 +42 опасность
перегрева
1009.4 1008.4 +30.3
15 8.12 СВ 1 12 км мгла 9/1 800 м
[Sc Ac trans Ci fib]
+26.1 +24.3 90 +36 +36 очень
душно
1011.4 1010.4
18 8.12 СВ 2 12 км мгла 9/3 800 м
[Sc Ac As Ci sp]
+25.6 +24.0 91 +35 +35 очень
душно
1010.9 1009.9
21 8.12 СВ 1 10 км мгла 9/1 800 м
[Sc Ac As Ci sp]
+24.9 +24.1 95 +34 +34 очень
душно
1009.6 1008.6
00 9.12 штиль 0 14 км мгла 9/4 500 м
[Cb cap Ac As Ci sp]
+25.0 +24.5 97 +35 +35 очень
душно
1011.2 1010.2 +23.9
03 9.12 СВ 2 18 км мгла 9/4 500 м
[Cb cap Ac trans Ci sp]
+29.7 +24.8 75 +42 +47 опасность
перегрева
1011.1 1010.1
06 9.12 ЮЗ 3 18 км мгла 9/4 500 м
[Cb cap Ac As Ci sp]
+29.8 +24.9 75 +43 +48 опасность
перегрева
1008.9 1007.9
09 9.12 З 2 14 км осадки на расстоянии 9/4 500 м
[Cb cap Ac lent Ci sp]
+29.2 +25.5 80 +43 +45 опасность
перегрева
1006.7 1005.7
12 9.12 С 2 10 км в посл. час гроза 9/4 500 м
[Cb cap Ac lent Cs]
+27.4 +24.4 84 +39 +39 очень
душно
1009.1 1008.1 +31.1
15 9.12 СВ 2 12 км в посл. час дождь 10/5 360 м
[Cb cap Ac As Cs]
+26.0 +24.7 93 +37 +37 очень
душно
1011.0 1010.0
18 9.12 штиль 0 12 км зарница 9/4 500 м
[Cb cap Ac As Ci sp]
+25.5 +24.7 95 +36 +36 очень
душно
1010.1 1009.1 0.0
21 9.12 СВ 1 12 км зарница 9/3 500 м
[Cb cap Ac As Ci sp]
+25.1 +24.3 95 +35 +35 очень
душно
1008.3 1007.3
00 10.12 В 2 9000 м мгла 9/1 500 м
[Cb cap Ac As Ci sp]
+25.4 +24.5 95 +36 +36 очень
душно
1009.7 1008.7 +24.5 0.0
03 10.12 СВ 3 15 км мгла 9/4 500 м
[Cb cap Ac trans Ci fib]
+30.2 +24.9 73 +43 +47 опасность
перегрева
1011.1 1010.1
06 10.12 З 3 18 км мгла 9/4 500 м
[Cb cap Ac trans Ci fib]
+30.8 +24.6 70 +44 +49 опасность
перегрева
1008.8 1007.8
09 10.12 З 2 15 км гроза без осадков 9/4 500 м
[Cb cap Ac lent Ci sp]
+29.5 +24.6 75 +42 +44 опасность
перегрева
1007.5 1006.5
12 10.12 СЗ 1 12 км зарница {гроза, ливн. осадки} 9/4 500 м
[Cb cap Ac lent Cs]
+27.1 +25.7 92 +40 +40 очень
душно
1009.4 1008.4 +33.3 3
15 10.12 штиль 0 12 км зарница 9/3 500 м
[Cb cap Ac As Ci sp]
+26.0 +24.4 91 +36 +36 очень
душно
1011.6 1010.6
18 10.12 штиль 0 12 км зарница 9/3 500 м
[Cb cap Ac As Ci sp]
+25.6 +25.0 96 +36 +36 очень
душно
1010.6 1009.6
21 10.12 СВ 1 12 км зарница 9/3 500 м
[Cb cap Ac As Ci sp]
+25.2 +24.3 95 +35 +35 очень
душно
1009.6 1008.6
00 11.12 СЗ 1 12 км мгла 9/4 500 м
[Sc Ac As Ci sp]
+25.5 +24.3 93 +35 +36 очень
душно
1011.2 1010.2 +24.8 3
03 11.12 З 2 16 км мгла 9/4 500 м
[Cb cap Ac lent Ci sp]
+27.8 +25.1 85 +40 +45 очень
душно
1012.3 1011.3
06 11.12 З 3 12 км слабый ливневой дождь 9/4 600 м
[Cu med, cong Ac lent Ci sp]
+28.7 +25.4 82 +42 +47 опасность
перегрева
1010.1 1009.1 0.2
09 11.12 З 3 14 км осадки на расстоянии 9/5 500 м
[Cb cap Ac As Ci sp]
+29.0 +24.9 79 +42 +43 опасность
перегрева
1008.3 1007.3
12 11.12 С 1 9000 м слабый дождь {гроза} 9/5 500 м
[Cb cap Ac As Ci sp]
+26.0 +25.0 94 +37 +37 очень
душно
1009.9 1008.9 +29.7 2
15 11.12 СВ 3 12 км зарница {дождь} 9/3 500 м
[Cb cap Ac lent Ci sp]
+25.3 +24.1 93 +35 +35 очень
душно
1011.8 1010.8
18 11.12 С 1 12 км зарница {дождь} 9/4 500 м
[Cb cap Ac lent Ci sp]
+24.3 +23.5 95 +33 +33 очень
душно
1011.3 1010.3 0.0
21 11.12 С 1 9000 м зарница 9/3 300 м
[Cb cap Ac As Ci sp]
+24.0 +23.5 97 +32 +32 очень
душно
1009.7 1008.7
00 12.12 штиль 0 18 км мгла 9/3 360 м
[Cb cap Ac lent Ci sp]
+24.6 +23.7 95 +33 +34 очень
душно
1011.3 1010.3 +23.7 3
03 12.12 СЗ 2 14 км мгла 9/5 500 м
[Cb cap Ac trans Ci fib]
+30.0 +24.1 71 +42 +46 опасность
перегрева
1012.5 1011.5
06 12.12 З 2 16 км мгла 9/5 500 м
[Cb cap Ac As Ci fib]
+31.2 +25.6 72 +46 +51 опасность
перегрева
1010.0 1009.0
09 12.12 ЮВ 1 8000 м гроза без осадков {ливн. осадки} 9/4 360 м
[Cb cap Ac As Cs]
+27.7 +25.1 86 +40 +42 очень
душно
1008.5 1007.5
12 12.12 СЗ 1 4000 м гроза, ливневой дождь 10/5 240 м
[Cb cap Ac As Cs]
+24.3 +23.6 96 +33 +33 очень
душно
1010.8 1009.8 +31.3 21
15 12.12 СВ 1 10 км дымка 9/3 300 м
[St Ac As Ci sp]
+24.4 +23.9 97 +33 +33 очень
душно
1011.8 1010.8
18 12.12 СВ 2 10 км мгла 9/3 800 м
[Sc Ac As Ci sp]
+24.6 +23.7 95 +33 +33 очень
душно
1011.4 1010.4 1
21 12.12 С 2 10 км мгла 9/0 800 м
[As op Cs]
+24.7 +23.8 95 +34 +34 очень
душно
1010.5 1009.5
00 13.12 СВ 2 10 км мгла 10/5 500 м
[Cb cap Ac As Cs]
+24.9 +24.0 95 +34 +34 очень
душно
1011.9 1010.9 +24.2 22
03 13.12 СВ 3 18 км мгла 9/1 500 м
[Cb cap Ac As Ci sp]
+28.2 +24.6 81 +40 +46 очень
душно
1012.7 1011.7
06 13.12 СВ 5 18 км мгла 9/4 600 м
[Cu med, cong Ac As Ci sp]
+29.3 +24.4 75 +41 +45 опасность
перегрева
1011.0 1010.0
09 13.12 СВ 4 18 км мгла 9/4 500 м
[Cb cap Ac lent Cs]
+28.1 +23.9 78 +39 +40 очень
душно
1009.6 1008.6
12 13.12 СВ 2 14 км мгла 9/3 840 м
[Sc diur, vesp Ac lent Cs]
+26.2 +23.6 86 +36 +36 очень
душно
1011.5 1010.5 +30.1
15 13.12 СВ 3 14 км мгла 9/4 840 м
[Sc Ac As Ci sp]
+24.8 +22.9 89 +33 +33 очень
душно
1012.8 1011.8
18 13.12 СВ 2 14 км мгла 9/4 840 м
[Sc Ac As Ci sp]
+24.2 +22.9 92 +32 +32 очень
душно
1012.4 1011.4
21 13.12 В 1 14 км мгла 8/3 840 м
[Sc Ac trans Ci sp]
+23.4 +22.6 95 +32 +32 очень
душно
1010.7 1009.7

 

Местоположение метеостанции Malacca (Малайзия): широта 2.27 долгота 102.25 высота над уровнем моря 9 м.

В архиве по умолчанию представлена погода в Malacca за последнюю неделю. Архивные данные за месяц целиком и за предыдущие месяцы, начиная с января 2011 года, Вы можете получить, выбрав интересующий диапазон дат из раскрывающегося списка и нажав кнопку "Ввод!".


*Определитесь, кто Вы:
робот инопланетянин человек

Внимание! Время в таблицах - всемирное. Для получения местного времени необходимо прибавить поправку, которая в Malacca равна 7 ч.

Смотрите также архив погоды в соседних городах и на ближайших метеорологических станциях:

Погода в Kuala Lumpur Int Airport (Малайзия) (79 км)
Погода в Kuala Lumpur (Малайзия) (122 км)
Погода в Johore Bharu / Senai (Малайзия) (173 км)
Погода в Kuantan (Малайзия) (199 км)
Погода в Singapore (Сингапур) (217 км)
Погода в Pekanbaru (Индонезия) (219 км)
Погода в Batam Hang Nadim Airport (Индонезия) (243 км)
Погода в Cameron Highlands (Малайзия) (263 км)
Погода в Sitiawan (Малайзия) (277 км)
Погода в Ipoh (Малайзия) (286 км)

Пояснения к столбцам:

Ветер - указаны скорость ветра в м/с - средняя за 10 мин, порывы в срок и между сроками (в фигурных скобках) и направление, откуда дует ветер: С - северный, СВ - северо-восточный, В - восточный, ЮВ - юго-восточный, Ю - южный, ЮЗ - юго-западный, З - западный, СЗ - северо-западный.
Видимость - горизонтальная дальность видимости в метрах или километрах. При видимости от 1 до 10 км при отсутствии осадков обычно наблюдается дымка, при ухудшении видимости до 1 км и менее - туман. В сухую погоду видимость может ухудшаться дымом, пылью или мглою.
Явления - указаны атмосферные явления, наблюдавшиеся в срок или в последний час перед сроком; фигурными скобками обозначены явления, наблюдавшиеся между сроками (за 1-3 часа до срока); квадратными скобками обозначены град или гололедные отложения с указанием их диаметра в мм.
Облачность - указаны через наклонную черту общая и нижняя облачность в баллах и высота нижней границы облаков в метрах; квадратными скобками обозначены формы облаков: Ci - перистые, Cs - перисто-слоистые, Cc - перисто-кучевые, Ac - высококучевые, As - высокослоистые, Sc - слоисто-кучевые, Ns - слоисто-дождевые, Cu - кучевые, Cb - кучево-дождевые. Подробнее классификацию облаков см. в Атласе облаков (PDF).
T - Температура воздуха - температура, измеренная на высоте 2 м над землей.
Td - Температура точки росы - температура, при понижении до которой содержащийся в воздухе водяной пар достигнет насыщения.
f - Относительная влажность воздуха - влажноcть воздуха, измеренная на высоте 2 м над землей.
Te - Эффективная температура - температура, которую ощущает одетый по сезону человек в тени. Характеристика душности погоды. При расчете учитывается влияние влажности воздуха и скорости ветра на теплоощущения человека.
Tes - Эффективная температура на солнце - температура, которую ощущает человек, с поправкой на солнечный нагрев. Характеристика знойности погоды. Зависит от высоты солнца над горизонтом, облачности и скорости ветра. Ночью, в пасмурную погоду, а также при ветре 12 м/с и более поправка равна нулю.
P - Атмосферное давление - приведенное к уровню моря атмосферное давление.
Po - Атмосферное давление - измеренное на уровне метеостанции атмосферное давление.
Tmin - Минимальная температура - минимум температуры воздуха на высоте 2 м над землей.
Tmax - Максимальная температура - максимум температуры воздуха на высоте 2 м над землей.
R - Количество осадков - Количество выпавших осадков за период времени, мм. При наведении курсора мыши на число - период времени, за который выпало указанное количество осадков.
R24 - Количество осадков - Количество выпавших осадков за 24 часа, мм.
S - Снежный покров - Высота снежного покрова, см. При наведении курсора мыши на число - состояние снежного покрова и степень покрытия местности в баллах.